星链-4091 (STARLINK-4091 )

导读

STARLINK-4091是美国太空探索技术公司SpaceX星链计划中的一颗卫星,于2022年6月17日发射入轨,属于低地球轨道通信卫星。它是星链星座组网的组成单元之一,旨在为全球提供高速宽带互联网服务,尤其覆盖偏远地区与网络基础设施薄弱区域,支撑全球卫星互联网通信网络的搭建与扩展。

基本信息
目录编号:
52830
目录名称:
STARLINK-4091
国际标识:
2022-062A
轨道中心:
EARTH
卫星名称:
星链-4091
卫星全名:
星链-4091 (STARLINK-4091 )
卫星状态:
在轨 (已飞行1540 天)
发射日期:
2022-06-17 UTC
国别 :
美国 (US)
星等 :
--
轨道信息
数据来源 国际轨道数据
星历时间: 2026-09-04T12:07:41+0800
5小时前
查看轨道信息
半长轴: 6848.864km
偏心率: 0.000122
轨道倾角: 53.160°
近地点辐角 80.713°
升交点赤经 304.851°
平近点角 279.401°
近地点: 469.891km
远地点: 471.563km
周期: 94.013分钟
每日圈数: 15.317046
详细信息
固有亮度:
5
最大亮度:
2.5
卫星平台:
Starlink v1.5
覆盖范围:
全球
运营商:
太空探索技术公司
运营商所在国:
美国
制造商(研发单位):
太空探索技术公司
制造商所在国:
美国
使用方式:
暂无
卫星简介
星链(Starlink)计划是由太空探索技术公司(SpaceX)提出的一个巨型低轨卫星互联网星座项目,计划在2019年至2024年间在太空搭建由约1.2万颗卫星组成的“星链”网络,其中1584颗将部署在地球上空550千米处的近地轨道,并从2020年开始工作。该卫星仍在工作。
2D轨道图
3D轨道图
轨道高度分析图
轨道倾角分析图
轨道综合分析图
查看轨道综合分析图
交会数据列表
事件ID 空间交会对象 最接近时刻(TCA) 交会距离 交会风险概率(CRP) 交会风险指数(CRI) 操作
CDM_260904-113905-283006-780721
2026-09-04T
11:39:24+0000
2.441 km
极远距离
1.744915E-6 低风险 0.4
CDM_260905-015405-283006-902822
2026-09-05T
01:54:03+0000
2.704 km
极远距离
1.527963E-6 低风险 0.39
CDM_260904-180005-283006-630421
OBJECT M (66304)
2026-09-04T
18:00:45+0000
2.551 km
极远距离
1.252493E-6 低风险 0.37